Wetterdaten: Sonntag, 18.06.2017
Datum Zeit Temp. I. Temp. A. Boden 5 cm Feuchte A. Sonne Luftdruck Regen Wind Sonnenschein
18.06.2017 00:00 21,4 C 14,4 C 17,2 C 66 % 0 % 1026 hPa 0,0 l/m 0,0 km/h (0 Bft) 0 min
18.06.2017 00:03 21,4 C 14,4 C 17,4 C 67 % 0 % 1026 hPa 0,0 l/m 0,0 km/h (0 Bft) 0 min
18.06.2017 00:06 21,4 C 14,4 C 17,2 C 67 % 0 % 1026 hPa 0,0 l/m 0,0 km/h (0 Bft) 0 min
18.06.2017 00:09 21,4 C 14,4 C 17,2 C 67 % 0 % 1026 hPa 0,0 l/m 0,0 km/h (0 Bft) 0 min
18.06.2017 00:12 21,4 C 14,4 C 17,2 C 66 % 0 % 1026 hPa 0,0 l/m 0,0 km/h (0 Bft) 0 min
18.06.2017 00:15 21,4 C 14,4 C 17,3 C 66 % 0 % 1026 hPa 0,0 l/m 0,0 km/h (0 Bft) 0 min
18.06.2017 00:18 21,3 C 14,4 C 17,2 C 67 % 0 % 1026 hPa 0,0 l/m 0,0 km/h (0 Bft) 0 min
18.06.2017 00:21 21,3 C 14,4 C 16,9 C 66 % 0 % 1026 hPa 0,0 l/m 0,0 km/h (0 Bft) 0 min
18.06.2017 00:24 21,3 C 14,4 C 16,8 C 66 % 0 % 1026 hPa 0,0 l/m 0,0 km/h (0 Bft) 0 min
18.06.2017 00:27 21,2 C 14,4 C 16,7 C 67 % 0 % 1026 hPa 0,0 l/m 0,0 km/h (0 Bft) 0 min
18.06.2017 00:30 21,2 C 14,2 C 16,5 C 67 % 0 % 1026 hPa 0,0 l/m 0,0 km/h (0 Bft) 0 min
18.06.2017 00:33 21,2 C 14,2 C 16,6 C 67 % 0 % 1026 hPa 0,0 l/m 0,0 km/h (0 Bft) 0 min
18.06.2017 00:36 21,2 C 14,1 C 16,8 C 68 % 0 % 1026 hPa 0,0 l/m 0,0 km/h (0 Bft) 0 min
18.06.2017 00:39 21,2 C 14,1 C 16,9 C 68 % 0 % 1026 hPa 0,0 l/m 0,0 km/h (0 Bft) 0 min
18.06.2017 00:42 21,1 C 14,0 C 16,6 C 68 % 0 % 1026 hPa 0,0 l/m 0,0 km/h (0 Bft) 0 min
18.06.2017 00:45 21,2 C 14,0 C 16,8 C 68 % 0 % 1026 hPa 0,0 l/m 0,0 km/h (0 Bft) 0 min
18.06.2017 00:48 21,2 C 14,0 C 16,8 C 69 % 0 % 1026 hPa 0,0 l/m 0,0 km/h (0 Bft) 0 min
18.06.2017 00:51 21,2 C 14,0 C 16,8 C 69 % 0 % 1026 hPa 0,0 l/m 0,0 km/h (0 Bft) 0 min
18.06.2017 00:54 21,1 C 13,9 C 16,5 C 68 % 0 % 1026 hPa 0,0 l/m 0,0 km/h (0 Bft) 0 min
18.06.2017 00:57 21,1 C 13,9 C 16,7 C 69 % 0 % 1026 hPa 0,0 l/m 0,0 km/h (0 Bft) 0 min
18.06.2017 01:00 21,1 C 13,9 C 16,9 C 69 % 0 % 1026 hPa 0,0 l/m 0,0 km/h (0 Bft) 0 min
18.06.2017 01:03 21,0 C 13,9 C 16,5 C 68 % 0 % 1026 hPa 0,0 l/m 0,0 km/h (0 Bft) 0 min
18.06.2017 01:06 21,0 C 13,9 C 16,2 C 68 % 0 % 1026 hPa 0,0 l/m 0,0 km/h (0 Bft) 0 min
18.06.2017 01:09 21,0 C 13,9 C 16,4 C 68 % 0 % 1026 hPa 0,0 l/m 0,0 km/h (0 Bft) 0 min
18.06.2017 01:12 21,0 C 13,8 C 16,5 C 69 % 0 % 1026 hPa 0,0 l/m 0,3 km/h (0 Bft) 0 min
18.06.2017 01:15 21,0 C 13,8 C 16,7 C 68 % 0 % 1026 hPa 0,0 l/m 0,4 km/h (0 Bft) 0 min
18.06.2017 01:18 21,0 C 13,8 C 16,5 C 68 % 0 % 1026 hPa 0,0 l/m 0,0 km/h (0 Bft) 0 min
18.06.2017 01:21 21,0 C 13,7 C 16,4 C 68 % 0 % 1026 hPa 0,0 l/m 0,0 km/h (0 Bft) 0 min
18.06.2017 01:24 21,0 C 13,7 C 15,9 C 68 % 0 % 1026 hPa 0,0 l/m 2,4 km/h (1 Bft) 0 min
18.06.2017 01:27 21,0 C 13,6 C 15,9 C 71 % 0 % 1026 hPa 0,0 l/m 1,2 km/h (1 Bft) 0 min
18.06.2017 01:30 21,0 C 13,6 C 16,2 C 71 % 0 % 1026 hPa 0,0 l/m 1,9 km/h (1 Bft) 0 min
18.06.2017 01:33 21,0 C 13,5 C 16,1 C 71 % 0 % 1026 hPa 0,0 l/m 0,1 km/h (0 Bft) 0 min
18.06.2017 01:36 20,9 C 13,4 C 15,9 C 71 % 0 % 1026 hPa 0,0 l/m 0,4 km/h (0 Bft) 0 min
18.06.2017 01:39 20,9 C 13,3 C 15,9 C 71 % 0 % 1026 hPa 0,0 l/m 1,8 km/h (1 Bft) 0 min
18.06.2017 01:42 20,9 C 13,2 C 15,7 C 72 % 0 % 1026 hPa 0,0 l/m 1,2 km/h (1 Bft) 0 min
18.06.2017 01:45 20,8 C 13,1 C 15,8 C 72 % 0 % 1026 hPa 0,0 l/m 0,3 km/h (0 Bft) 0 min
18.06.2017 01:48 20,8 C 13,0 C 15,6 C 72 % 0 % 1027 hPa 0,0 l/m 1,5 km/h (1 Bft) 0 min
18.06.2017 01:51 20,8 C 12,9 C 15,5 C 72 % 0 % 1027 hPa 0,0 l/m 0,1 km/h (0 Bft) 0 min
18.06.2017 01:54 20,7 C 12,8 C 15,8 C 72 % 0 % 1027 hPa 0,0 l/m 0,1 km/h (0 Bft) 0 min
18.06.2017 01:57 20,7 C 12,7 C 15,5 C 72 % 0 % 1027 hPa 0,0 l/m 4,5 km/h (1 Bft) 0 min
18.06.2017 02:00 20,6 C 12,7 C 15,8 C 72 % 0 % 1026 hPa 0,0 l/m 0,0 km/h (0 Bft) 0 min
18.06.2017 02:03 20,6 C 12,7 C 15,8 C 72 % 0 % 1026 hPa 0,0 l/m 0,0 km/h (0 Bft) 0 min
18.06.2017 02:06 20,6 C 12,6 C 15,6 C 72 % 0 % 1026 hPa 0,0 l/m 0,0 km/h (0 Bft) 0 min
18.06.2017 02:09 20,5 C 12,6 C 15,6 C 72 % 0 % 1026 hPa 0,0 l/m 0,1 km/h (0 Bft) 0 min
18.06.2017 02:12 20,4 C 12,5 C 15,4 C 72 % 0 % 1026 hPa 0,0 l/m 0,3 km/h (0 Bft) 0 min
18.06.2017 02:15 20,4 C 12,4 C 15,2 C 72 % 0 % 1026 hPa 0,0 l/m 2,1 km/h (1 Bft) 0 min
18.06.2017 02:18 20,4 C 12,4 C 15,6 C 72 % 0 % 1026 hPa 0,0 l/m 0,3 km/h (0 Bft) 0 min
18.06.2017 02:21 20,4 C 12,4 C 15,6 C 72 % 0 % 1026 hPa 0,0 l/m 0,1 km/h (0 Bft) 0 min
18.06.2017 02:24 20,3 C 12,3 C 15,3 C 73 % 0 % 1026 hPa 0,0 l/m 0,0 km/h (0 Bft) 0 min
18.06.2017 02:27 20,3 C 12,3 C 15,2 C 73 % 0 % 1026 hPa 0,0 l/m 0,0 km/h (0 Bft) 0 min
18.06.2017 02:30 20,3 C 12,3 C 15,3 C 73 % 0 % 1027 hPa 0,0 l/m 0,0 km/h (0 Bft) 0 min
18.06.2017 02:33 20,3 C 12,2 C 15,0 C 73 % 0 % 1027 hPa 0,0 l/m 1,6 km/h (1 Bft) 0 min
18.06.2017 02:36 20,2 C 12,2 C 15,2 C 73 % 0 % 1027 hPa 0,0 l/m 1,6 km/h (1 Bft) 0 min
18.06.2017 02:39 20,2 C 12,2 C 15,3 C 73 % 0 % 1027 hPa 0,0 l/m 0,0 km/h (0 Bft) 0 min
18.06.2017 02:42 20,2 C 12,1 C 15,0 C 73 % 0 % 1027 hPa 0,0 l/m 0,0 km/h (0 Bft) 0 min
18.06.2017 02:45 20,1 C 12,1 C 14,8 C 74 % 0 % 1027 hPa 0,0 l/m 0,0 km/h (0 Bft) 0 min
18.06.2017 02:48 20,1 C 12,0 C 15,1 C 74 % 0 % 1027 hPa 0,0 l/m 0,0 km/h (0 Bft) 0 min
18.06.2017 02:51 20,1 C 12,0 C 14,8 C 74 % 0 % 1027 hPa 0,0 l/m 0,0 km/h (0 Bft) 0 min
18.06.2017 02:54 20,1 C 12,0 C 15,0 C 74 % 0 % 1027 hPa 0,0 l/m 0,0 km/h (0 Bft) 0 min
18.06.2017 02:57 20,0 C 11,9 C 14,7 C 74 % 0 % 1027 hPa 0,0 l/m 0,0 km/h (0 Bft) 0 min
18.06.2017 03:00 20,0 C 11,8 C 14,8 C 74 % 0 % 1026 hPa 0,0 l/m 0,0 km/h (0 Bft) 0 min
18.06.2017 03:03 20,0 C 11,8 C 14,8 C 74 % 0 % 1026 hPa 0,0 l/m 0,0 km/h (0 Bft) 0 min
18.06.2017 03:06 20,0 C 11,8 C 15,1 C 74 % 0 % 1026 hPa 0,0 l/m 0,0 km/h (0 Bft) 0 min
18.06.2017 03:09 20,0 C 11,8 C 15,1 C 74 % 0 % 1027 hPa 0,0 l/m 0,0 km/h (0 Bft) 0 min
18.06.2017 03:12 20,0 C 11,8 C 15,2 C 74 % 0 % 1026 hPa 0,0 l/m 0,0 km/h (0 Bft) 0 min
18.06.2017 03:15 19,9 C 11,9 C 15,0 C 75 % 0 % 1027 hPa 0,0 l/m 0,0 km/h (0 Bft) 0 min
18.06.2017 03:18 19,9 C 11,9 C 14,8 C 75 % 0 % 1026 hPa 0,0 l/m 0,0 km/h (0 Bft) 0 min
18.06.2017 03:21 19,9 C 11,9 C 14,8 C 75 % 0 % 1026 hPa 0,0 l/m 0,0 km/h (0 Bft) 0 min
18.06.2017 03:24 19,9 C 11,9 C 14,8 C 75 % 0 % 1026 hPa 0,0 l/m 0,4 km/h (0 Bft) 0 min
18.06.2017 03:27 19,9 C 11,9 C 14,9 C 74 % 0 % 1026 hPa 0,0 l/m 0,0 km/h (0 Bft) 0 min
18.06.2017 03:30 19,9 C 11,9 C 14,9 C 74 % 0 % 1026 hPa 0,0 l/m 0,0 km/h (0 Bft) 0 min
18.06.2017 03:33 19,9 C 11,9 C 14,5 C 74 % 0 % 1026 hPa 0,0 l/m 0,0 km/h (0 Bft) 0 min
18.06.2017 03:36 19,8 C 11,8 C 14,8 C 74 % 0 % 1027 hPa 0,0 l/m 0,0 km/h (0 Bft) 0 min
18.06.2017 03:39 19,8 C 11,8 C 14,8 C 74 % 0 % 1027 hPa 0,0 l/m 0,0 km/h (0 Bft) 0 min
18.06.2017 03:42 19,8 C 11,8 C 14,8 C 74 % 0 % 1027 hPa 0,0 l/m 1,3 km/h (1 Bft) 0 min
18.06.2017 03:45 19,8 C 11,8 C 14,7 C 74 % 0 % 1027 hPa 0,0 l/m 0,0 km/h (0 Bft) 0 min
18.06.2017 03:48 19,8 C 11,7 C 14,8 C 74 % 0 % 1027 hPa 0,0 l/m 0,0 km/h (0 Bft) 0 min
18.06.2017 03:51 19,8 C 11,8 C 14,5 C 74 % 0 % 1027 hPa 0,0 l/m 0,0 km/h (0 Bft) 0 min
18.06.2017 03:54 19,8 C 11,7 C 14,7 C 74 % 0 % 1027 hPa 0,0 l/m 0,0 km/h (0 Bft) 0 min
18.06.2017 03:57 19,7 C 11,7 C 14,8 C 75 % 0 % 1027 hPa 0,0 l/m 0,0 km/h (0 Bft) 0 min
18.06.2017 04:00 19,7 C 11,8 C 14,7 C 75 % 0 % 1027 hPa 0,0 l/m 0,0 km/h (0 Bft) 0 min
18.06.2017 04:03 19,7 C 11,8 C 14,7 C 75 % 0 % 1027 hPa 0,0 l/m 0,0 km/h (0 Bft) 0 min
18.06.2017 04:06 19,7 C 11,8 C 14,5 C 75 % 0 % 1027 hPa 0,0 l/m 0,0 km/h (0 Bft) 0 min
18.06.2017 04:09 19,7 C 11,8 C 14,4 C 75 % 0 % 1027 hPa 0,0 l/m 0,0 km/h (0 Bft) 0 min
18.06.2017 04:12 19,7 C 11,7 C 14,3 C 75 % 0 % 1027 hPa 0,0 l/m 2,4 km/h (1 Bft) 0 min
18.06.2017 04:15 19,6 C 11,7 C 14,3 C 75 % 0 % 1027 hPa 0,0 l/m 2,4 km/h (1 Bft) 0 min
18.06.2017 04:18 19,6 C 11,6 C 14,6 C 76 % 0 % 1027 hPa 0,0 l/m 0,0 km/h (0 Bft) 0 min
18.06.2017 04:21 19,6 C 11,6 C 14,3 C 76 % 0 % 1027 hPa 0,0 l/m 0,0 km/h (0 Bft) 0 min
18.06.2017 04:24 19,6 C 11,6 C 14,5 C 76 % 0 % 1027 hPa 0,0 l/m 0,0 km/h (0 Bft) 0 min
18.06.2017 04:27 19,6 C 11,6 C 14,5 C 76 % 0 % 1027 hPa 0,0 l/m 0,0 km/h (0 Bft) 0 min
18.06.2017 04:30 19,6 C 11,6 C 14,1 C 76 % 0 % 1027 hPa 0,0 l/m 0,0 km/h (0 Bft) 0 min
18.06.2017 04:33 19,6 C 11,6 C 14,4 C 76 % 0 % 1027 hPa 0,0 l/m 0,0 km/h (0 Bft) 0 min
18.06.2017 04:36 19,5 C 11,6 C 14,1 C 76 % 0 % 1027 hPa 0,0 l/m 0,0 km/h (0 Bft) 0 min
18.06.2017 04:39 19,5 C 11,5 C 14,1 C 76 % 0 % 1027 hPa 0,0 l/m 0,0 km/h (0 Bft) 0 min
18.06.2017 04:42 19,5 C 11,5 C 14,4 C 77 % 0 % 1027 hPa 0,0 l/m 0,0 km/h (0 Bft) 0 min
18.06.2017 04:45 19,5 C 11,6 C 14,5 C 77 % 0 % 1027 hPa 0,0 l/m 0,0 km/h (0 Bft) 0 min
18.06.2017 04:48 19,4 C 11,5 C 14,7 C 77 % 0 % 1027 hPa 0,0 l/m 0,0 km/h (0 Bft) 0 min
18.06.2017 04:51 19,4 C 11,5 C 14,6 C 77 % 0 % 1027 hPa 0,0 l/m 0,0 km/h (0 Bft) 0 min
18.06.2017 04:54 19,4 C 11,5 C 14,3 C 77 % 0 % 1027 hPa 0,0 l/m 0,0 km/h (0 Bft) 0 min
18.06.2017 04:57 19,4 C 11,4 C 14,1 C 77 % 0 % 1027 hPa 0,0 l/m 0,0 km/h (0 Bft) 0 min
18.06.2017 05:00 19,3 C 11,3 C 13,8 C 76 % 0 % 1027 hPa 0,0 l/m 0,0 km/h (0 Bft) 0 min
18.06.2017 05:03 19,3 C 11,3 C 13,8 C 76 % 0 % 1027 hPa 0,0 l/m 0,0 km/h (0 Bft) 0 min
18.06.2017 05:06 19,3 C 11,2 C 14,1 C 77 % 0 % 1027 hPa 0,0 l/m 0,0 km/h (0 Bft) 0 min
18.06.2017 05:09 19,3 C 11,2 C 14,1 C 77 % 0 % 1027 hPa 0,0 l/m 0,0 km/h (0 Bft) 0 min
18.06.2017 05:12 19,2 C 11,2 C 14,0 C 77 % 0 % 1027 hPa 0,0 l/m 0,0 km/h (0 Bft) 0 min
18.06.2017 05:15 19,2 C 11,2 C 14,3 C 77 % 0 % 1027 hPa 0,0 l/m 0,0 km/h (0 Bft) 0 min
18.06.2017 05:18 19,2 C 11,2 C 14,3 C 78 % 0 % 1027 hPa 0,0 l/m 0,0 km/h (0 Bft) 0 min
18.06.2017 05:21 19,2 C 11,2 C 14,3 C 78 % 0 % 1027 hPa 0,0 l/m 0,0 km/h (0 Bft) 0 min
18.06.2017 05:24 19,2 C 11,2 C 14,1 C 78 % 0 % 1027 hPa 0,0 l/m 0,0 km/h (0 Bft) 0 min
18.06.2017 05:27 19,2 C 11,2 C 13,9 C 78 % 0 % 1027 hPa 0,0 l/m 0,0 km/h (0 Bft) 0 min
18.06.2017 05:30 19,1 C 11,1 C 13,7 C 78 % 0 % 1027 hPa 0,0 l/m 0,0 km/h (0 Bft) 0 min
18.06.2017 05:33 19,1 C 11,0 C 13,7 C 78 % 0 % 1027 hPa 0,0 l/m 0,0 km/h (0 Bft) 0 min
18.06.2017 05:36 19,1 C 10,9 C 13,7 C 78 % 0 % 1027 hPa 0,0 l/m 0,0 km/h (0 Bft) 0 min
18.06.2017 05:39 19,1 C 10,9 C 13,6 C 78 % 0 % 1027 hPa 0,0 l/m 0,0 km/h (0 Bft) 0 min
18.06.2017 05:42 19,0 C 10,9 C 13,6 C 78 % 0 % 1027 hPa 0,0 l/m 0,0 km/h (0 Bft) 0 min
18.06.2017 05:45 19,0 C 10,9 C 13,8 C 78 % 0 % 1027 hPa 0,0 l/m 0,0 km/h (0 Bft) 0 min
18.06.2017 05:48 19,0 C 10,9 C 14,0 C 78 % 0 % 1027 hPa 0,0 l/m 0,0 km/h (0 Bft) 0 min
18.06.2017 05:51 19,0 C 10,9 C 14,3 C 78 % 0 % 1027 hPa 0,0 l/m 0,0 km/h (0 Bft) 0 min
18.06.2017 05:54 19,0 C 11,0 C 13,7 C 79 % 0 % 1027 hPa 0,0 l/m 0,0 km/h (0 Bft) 0 min
18.06.2017 05:57 19,0 C 11,0 C 13,7 C 79 % 0 % 1027 hPa 0,0 l/m 0,0 km/h (0 Bft) 0 min
18.06.2017 06:00 19,0 C 11,0 C 13,8 C 79 % 0 % 1027 hPa 0,0 l/m 0,6 km/h (0 Bft) 0 min
18.06.2017 06:03 19,0 C 11,0 C 13,9 C 79 % 0 % 1027 hPa 0,0 l/m 0,6 km/h (0 Bft) 0 min
18.06.2017 06:06 19,0 C 11,1 C 14,1 C 79 % 0 % 1027 hPa 0,0 l/m 0,0 km/h (0 Bft) 0 min
18.06.2017 06:09 19,0 C 11,1 C 14,2 C 79 % 0 % 1027 hPa 0,0 l/m 0,0 km/h (0 Bft) 0 min
18.06.2017 06:12 19,0 C 11,2 C 14,3 C 79 % 0 % 1027 hPa 0,0 l/m 0,0 km/h (0 Bft) 0 min
18.06.2017 06:15 19,0 C 11,3 C 14,0 C 80 % 0 % 1027 hPa 0,0 l/m 0,0 km/h (0 Bft) 0 min
18.06.2017 06:18 19,0 C 11,4 C 14,0 C 80 % 0 % 1027 hPa 0,0 l/m 0,0 km/h (0 Bft) 0 min
18.06.2017 06:21 19,0 C 11,5 C 14,2 C 80 % 0 % 1027 hPa 0,0 l/m 1,5 km/h (1 Bft) 0 min
18.06.2017 06:24 19,0 C 11,6 C 14,3 C 80 % 0 % 1027 hPa 0,0 l/m 0,0 km/h (0 Bft) 0 min
18.06.2017 06:27 19,0 C 11,6 C 14,6 C 80 % 0 % 1027 hPa 0,0 l/m 0,0 km/h (0 Bft) 0 min
18.06.2017 06:30 19,0 C 11,6 C 14,6 C 80 % 0 % 1027 hPa 0,0 l/m 0,0 km/h (0 Bft) 0 min
18.06.2017 06:33 19,0 C 11,9 C 14,6 C 80 % 0 % 1027 hPa 0,0 l/m 0,0 km/h (0 Bft) 0 min
18.06.2017 06:36 19,0 C 12,0 C 14,8 C 80 % 0 % 1027 hPa 0,0 l/m 0,0 km/h (0 Bft) 0 min
18.06.2017 06:39 19,0 C 12,1 C 15,2 C 80 % 0 % 1027 hPa 0,0 l/m 0,0 km/h (0 Bft) 0 min
18.06.2017 06:42 19,1 C 12,3 C 15,7 C 80 % 0 % 1027 hPa 0,0 l/m 0,0 km/h (0 Bft) 0 min
18.06.2017 06:45 19,1 C 12,4 C 15,5 C 79 % 0 % 1027 hPa 0,0 l/m 0,0 km/h (0 Bft) 0 min
18.06.2017 06:48 19,1 C 12,6 C 15,7 C 78 % 0 % 1027 hPa 0,0 l/m 0,0 km/h (0 Bft) 0 min
18.06.2017 06:51 19,0 C 12,6 C 15,6 C 78 % 0 % 1027 hPa 0,0 l/m 0,0 km/h (0 Bft) 0 min
18.06.2017 06:54 19,1 C 12,9 C 15,8 C 77 % 0 % 1027 hPa 0,0 l/m 0,0 km/h (0 Bft) 0 min
18.06.2017 06:57 19,1 C 13,1 C 16,3 C 76 % 0 % 1028 hPa 0,0 l/m 0,0 km/h (0 Bft) 0 min
18.06.2017 07:00 19,1 C 13,2 C 16,4 C 76 % 0 % 1027 hPa 0,0 l/m 0,1 km/h (0 Bft) 0 min
18.06.2017 07:03 19,1 C 13,3 C 16,4 C 75 % 0 % 1027 hPa 0,0 l/m 0,1 km/h (0 Bft) 0 min
18.06.2017 07:06 19,1 C 13,5 C 17,0 C 74 % 0 % 1027 hPa 0,0 l/m 0,0 km/h (0 Bft) 0 min
18.06.2017 07:09 19,2 C 13,9 C 18,0 C 73 % 0 % 1027 hPa 0,0 l/m 0,0 km/h (0 Bft) 0 min
18.06.2017 07:12 19,2 C 14,2 C 17,1 C 72 % 0 % 1027 hPa 0,0 l/m 1,8 km/h (1 Bft) 0 min
18.06.2017 07:15 19,2 C 14,8 C 17,2 C 71 % 0 % 1027 hPa 0,0 l/m 2,6 km/h (1 Bft) 0 min
18.06.2017 07:18 19,2 C 15,1 C 17,5 C 71 % 0 % 1027 hPa 0,0 l/m 0,0 km/h (0 Bft) 0 min
18.06.2017 07:21 19,2 C 15,6 C 17,6 C 70 % 0 % 1027 hPa 0,0 l/m 0,0 km/h (0 Bft) 0 min
18.06.2017 07:24 19,2 C 15,8 C 17,7 C 69 % 0 % 1027 hPa 0,0 l/m 0,3 km/h (0 Bft) 0 min
18.06.2017 07:27 19,3 C 15,9 C 17,7 C 68 % 0 % 1028 hPa 0,0 l/m 0,1 km/h (0 Bft) 0 min
18.06.2017 07:30 19,2 C 15,9 C 17,9 C 68 % 0 % 1028 hPa 0,0 l/m 1,0 km/h (0 Bft) 0 min
18.06.2017 07:33 19,2 C 16,2 C 18,1 C 68 % 0 % 1028 hPa 0,0 l/m 1,0 km/h (0 Bft) 0 min
18.06.2017 07:36 19,3 C 16,6 C 19,9 C 67 % 0 % 1028 hPa 0,0 l/m 0,0 km/h (0 Bft) 0 min
18.06.2017 07:39 19,4 C 16,6 C 18,6 C 67 % 0 % 1028 hPa 0,0 l/m 4,1 km/h (1 Bft) 0 min
18.06.2017 07:42 19,4 C 16,9 C 18,4 C 66 % 0 % 1028 hPa 0,0 l/m 0,3 km/h (0 Bft) 0 min
18.06.2017 07:45 19,5 C 16,9 C 18,4 C 66 % 0 % 1028 hPa 0,0 l/m 0,3 km/h (0 Bft) 0 min
18.06.2017 07:48 19,5 C 16,8 C 18,1 C 66 % 0 % 1028 hPa 0,0 l/m 0,3 km/h (0 Bft) 0 min
18.06.2017 07:51 19,6 C 16,9 C 18,9 C 65 % 0 % 1028 hPa 0,0 l/m 0,0 km/h (0 Bft) 0 min
18.06.2017 07:54 19,8 C 17,3 C 19,5 C 63 % 0 % 1028 hPa 0,0 l/m 2,3 km/h (1 Bft) 0 min
18.06.2017 07:57 19,8 C 16,9 C 18,4 C 65 % 0 % 1028 hPa 0,0 l/m 2,8 km/h (1 Bft) 0 min
18.06.2017 08:00 19,8 C 16,4 C 18,4 C 65 % 0 % 1028 hPa 0,0 l/m 2,8 km/h (1 Bft) 0 min
18.06.2017 08:03 19,9 C 16,4 C 18,2 C 66 % 0 % 1028 hPa 0,0 l/m 0,3 km/h (0 Bft) 0 min
18.06.2017 08:06 19,9 C 16,2 C 17,8 C 65 % 0 % 1028 hPa 0,0 l/m 0,1 km/h (0 Bft) 0 min
18.06.2017 08:09 19,9 C 16,0 C 17,5 C 66 % 0 % 1028 hPa 0,0 l/m 4,5 km/h (1 Bft) 0 min
18.06.2017 08:12 20,0 C 16,0 C 17,7 C 66 % 0 % 1028 hPa 0,0 l/m 3,0 km/h (1 Bft) 0 min
18.06.2017 08:15 20,0 C 16,0 C 17,8 C 66 % 0 % 1028 hPa 0,0 l/m 3,0 km/h (1 Bft) 0 min
18.06.2017 08:18 20,0 C 16,1 C 17,6 C 67 % 0 % 1028 hPa 0,0 l/m 2,2 km/h (1 Bft) 0 min
18.06.2017 08:21 20,1 C 16,2 C 17,9 C 66 % 0 % 1028 hPa 0,0 l/m 3,7 km/h (1 Bft) 0 min
18.06.2017 08:24 20,0 C 16,6 C 18,1 C 66 % 0 % 1028 hPa 0,0 l/m 0,0 km/h (0 Bft) 0 min
18.06.2017 08:27 20,1 C 16,8 C 17,7 C 65 % 0 % 1028 hPa 0,0 l/m 6,1 km/h (2 Bft) 0 min
18.06.2017 08:30 20,1 C 16,8 C 17,8 C 64 % 0 % 1028 hPa 0,0 l/m 4,0 km/h (1 Bft) 0 min
18.06.2017 08:33 20,1 C 17,2 C 18,3 C 63 % 0 % 1028 hPa 0,0 l/m 2,6 km/h (1 Bft) 0 min
18.06.2017 08:36 20,1 C 17,6 C 17,8 C 63 % 0 % 1028 hPa 0,0 l/m 2,7 km/h (1 Bft) 0 min
18.06.2017 08:39 20,2 C 17,6 C 17,8 C 61 % 0 % 1028 hPa 0,0 l/m 2,9 km/h (1 Bft) 0 min
18.06.2017 08:42 20,2 C 18,0 C 18,1 C 61 % 0 % 1028 hPa 0,0 l/m 0,2 km/h (0 Bft) 0 min
18.06.2017 08:45 20,2 C 18,0 C 18,3 C 61 % 0 % 1028 hPa 0,0 l/m 0,0 km/h (0 Bft) 0 min
18.06.2017 08:48 20,2 C 18,4 C 18,3 C 60 % 0 % 1028 hPa 0,0 l/m 3,3 km/h (1 Bft) 0 min
18.06.2017 08:51 20,3 C 18,2 C 17,9 C 58 % 0 % 1028 hPa 0,0 l/m 2,2 km/h (1 Bft) 0 min
18.06.2017 08:54 20,3 C 17,8 C 18,4 C 60 % 0 % 1028 hPa 0,0 l/m 0,3 km/h (0 Bft) 0 min
18.06.2017 08:57 20,3 C 17,6 C 18,1 C 61 % 0 % 1028 hPa 0,0 l/m 3,1 km/h (1 Bft) 0 min
18.06.2017 09:00 20,3 C 17,6 C 18,6 C 62 % 0 % 1028 hPa 0,0 l/m 4,5 km/h (1 Bft) 0 min
18.06.2017 09:03 20,4 C 17,7 C 18,6 C 62 % 0 % 1028 hPa 0,0 l/m 5,0 km/h (1 Bft) 0 min
18.06.2017 09:06 20,4 C 17,7 C 18,8 C 62 % 0 % 1028 hPa 0,0 l/m 3,7 km/h (1 Bft) 0 min
18.06.2017 09:09 20,4 C 17,4 C 18,3 C 62 % 0 % 1028 hPa 0,0 l/m 3,9 km/h (1 Bft) 0 min
18.06.2017 09:12 20,4 C 17,7 C 18,8 C 63 % 0 % 1028 hPa 0,0 l/m 0,0 km/h (0 Bft) 0 min
18.06.2017 09:15 20,4 C 17,7 C 18,7 C 63 % 0 % 1028 hPa 0,0 l/m 4,7 km/h (1 Bft) 0 min
18.06.2017 09:18 20,4 C 18,6 C 18,6 C 60 % 0 % 1028 hPa 0,0 l/m 5,7 km/h (1 Bft) 0 min
18.06.2017 09:21 20,4 C 19,2 C 18,6 C 59 % 0 % 1028 hPa 0,0 l/m 4,2 km/h (1 Bft) 0 min
18.06.2017 09:24 20,4 C 19,7 C 18,8 C 59 % 0 % 1028 hPa 0,0 l/m 5,0 km/h (1 Bft) 0 min
18.06.2017 09:27 20,4 C 20,4 C 18,7 C 55 % 0 % 1028 hPa 0,0 l/m 1,7 km/h (1 Bft) 0 min
18.06.2017 09:30 20,4 C 20,2 C 18,5 C 54 % 0 % 1028 hPa 0,0 l/m 2,6 km/h (1 Bft) 0 min
18.06.2017 09:33 20,4 C 20,0 C 18,5 C 55 % 0 % 1028 hPa 0,0 l/m 4,2 km/h (1 Bft) 0 min
18.06.2017 09:36 20,5 C 20,0 C 18,5 C 56 % 0 % 1028 hPa 0,0 l/m 3,9 km/h (1 Bft) 0 min
18.06.2017 09:39 20,5 C 19,9 C 18,6 C 55 % 0 % 1028 hPa 0,0 l/m 5,1 km/h (1 Bft) 0 min
18.06.2017 09:42 20,5 C 19,8 C 18,6 C 56 % 0 % 1028 hPa 0,0 l/m 6,9 km/h (2 Bft) 0 min
18.06.2017 09:45 20,5 C 19,9 C 18,6 C 54 % 0 % 1028 hPa 0,0 l/m 0,4 km/h (0 Bft) 0 min
18.06.2017 09:48 20,5 C 20,7 C 18,9 C 52 % 0 % 1028 hPa 0,0 l/m 8,5 km/h (2 Bft) 0 min
18.06.2017 09:51 20,5 C 20,6 C 19,1 C 52 % 0 % 1028 hPa 0,0 l/m 5,0 km/h (1 Bft) 0 min
18.06.2017 09:54 20,5 C 20,2 C 18,6 C 53 % 0 % 1028 hPa 0,0 l/m 1,1 km/h (1 Bft) 0 min
18.06.2017 09:57 20,5 C 20,2 C 18,7 C 55 % 0 % 1028 hPa 0,0 l/m 0,0 km/h (0 Bft) 0 min
18.06.2017 10:00 20,5 C 19,9 C 18,7 C 54 % 0 % 1028 hPa 0,0 l/m 0,7 km/h (0 Bft) 0 min
18.06.2017 10:03 20,5 C 20,1 C 19,0 C 52 % 0 % 1028 hPa 0,0 l/m 9,6 km/h (2 Bft) 0 min
18.06.2017 10:06 20,6 C 20,1 C 19,1 C 52 % 0 % 1028 hPa 0,0 l/m 9,2 km/h (2 Bft) 0 min
18.06.2017 10:09 20,6 C 20,8 C 19,0 C 52 % 0 % 1028 hPa 0,0 l/m 6,7 km/h (2 Bft) 0 min
18.06.2017 10:12 20,6 C 21,2 C 19,0 C 47 % 0 % 1028 hPa 0,0 l/m 6,1 km/h (2 Bft) 0 min
18.06.2017 10:15 20,6 C 21,3 C 19,0 C 48 % 0 % 1028 hPa 0,0 l/m 0,7 km/h (0 Bft) 0 min
18.06.2017 10:18 20,6 C 21,6 C 19,0 C 46 % 0 % 1028 hPa 0,0 l/m 0,7 km/h (0 Bft) 0 min
18.06.2017 10:21 20,6 C 21,8 C 19,3 C 49 % 0 % 1028 hPa 0,0 l/m 3,2 km/h (1 Bft) 0 min
18.06.2017 10:24 20,7 C 20,9 C 19,3 C 46 % 0 % 1028 hPa 0,0 l/m 7,6 km/h (2 Bft) 0 min
18.06.2017 10:27 20,7 C 20,8 C 19,2 C 47 % 0 % 1028 hPa 0,0 l/m 3,6 km/h (1 Bft) 0 min
18.06.2017 10:30 20,8 C 20,6 C 19,5 C 47 % 0 % 1028 hPa 0,0 l/m 6,8 km/h (2 Bft) 0 min
18.06.2017 10:33 20,9 C 20,4 C 19,4 C 46 % 0 % 1028 hPa 0,0 l/m 4,6 km/h (1 Bft) 0 min
18.06.2017 10:36 21,0 C 20,5 C 19,3 C 46 % 0 % 1028 hPa 0,0 l/m 2,1 km/h (1 Bft) 0 min
18.06.2017 10:39 21,0 C 20,6 C 19,2 C 46 % 0 % 1028 hPa 0,0 l/m 0,9 km/h (0 Bft) 0 min
18.06.2017 10:42 21,1 C 21,0 C 19,6 C 47 % 0 % 1027 hPa 0,0 l/m 4,6 km/h (1 Bft) 0 min
18.06.2017 10:45 21,1 C 21,3 C 19,6 C 45 % 0 % 1027 hPa 0,0 l/m 4,6 km/h (1 Bft) 0 min
18.06.2017 10:48 21,2 C 21,0 C 19,3 C 45 % 0 % 1027 hPa 0,0 l/m 5,3 km/h (1 Bft) 0 min
18.06.2017 10:51 21,2 C 20,9 C 19,4 C 44 % 0 % 1027 hPa 0,0 l/m 3,0 km/h (1 Bft) 0 min
18.06.2017 10:54 21,3 C 21,0 C 19,8 C 50 % 0 % 1027 hPa 0,0 l/m 1,6 km/h (1 Bft) 0 min
18.06.2017 10:57 21,3 C 21,2 C 19,8 C 48 % 0 % 1027 hPa 0,0 l/m 8,8 km/h (2 Bft) 0 min
18.06.2017 11:00 21,3 C 21,8 C 19,7 C 44 % 0 % 1027 hPa 0,0 l/m 7,2 km/h (2 Bft) 0 min
18.06.2017 11:03 21,3 C 21,8 C 19,9 C 44 % 0 % 1027 hPa 0,0 l/m 0,7 km/h (0 Bft) 0 min
18.06.2017 11:06 21,2 C 22,5 C 19,9 C 43 % 0 % 1027 hPa 0,0 l/m 4,5 km/h (1 Bft) 0 min
18.06.2017 11:09 21,2 C 22,2 C 20,1 C 41 % 0 % 1027 hPa 0,0 l/m 4,5 km/h (1 Bft) 0 min
18.06.2017 11:12 21,2 C 22,1 C 19,9 C 43 % 0 % 1027 hPa 0,0 l/m 6,3 km/h (2 Bft) 0 min
18.06.2017 11:15 21,2 C 21,8 C 20,0 C 47 % 0 % 1027 hPa 0,0 l/m 10,3 km/h (2 Bft) 0 min
18.06.2017 11:18 21,2 C 21,4 C 20,2 C 46 % 0 % 1027 hPa 0,0 l/m 10,9 km/h (2 Bft) 0 min
18.06.2017 11:21 21,2 C 21,1 C 20,2 C 45 % 0 % 1027 hPa 0,0 l/m 7,2 km/h (2 Bft) 0 min
18.06.2017 11:24 21,2 C 20,9 C 20,1 C 43 % 0 % 1027 hPa 0,0 l/m 10,0 km/h (2 Bft) 0 min
18.06.2017 11:27 21,2 C 21,2 C 20,1 C 43 % 0 % 1027 hPa 0,0 l/m 5,2 km/h (1 Bft) 0 min
18.06.2017 11:30 21,2 C 21,4 C 20,3 C 46 % 0 % 1027 hPa 0,0 l/m 10,0 km/h (2 Bft) 0 min
18.06.2017 11:33 21,2 C 21,2 C 20,3 C 41 % 0 % 1027 hPa 0,0 l/m 7,0 km/h (2 Bft) 0 min
18.06.2017 11:36 21,2 C 21,2 C 20,4 C 41 % 0 % 1027 hPa 0,0 l/m 3,5 km/h (1 Bft) 0 min
18.06.2017 11:39 21,2 C 21,2 C 20,4 C 43 % 0 % 1027 hPa 0,0 l/m 8,7 km/h (2 Bft) 0 min
18.06.2017 11:42 21,2 C 20,7 C 20,4 C 42 % 0 % 1027 hPa 0,0 l/m 0,6 km/h (0 Bft) 0 min
18.06.2017 11:45 21,2 C 20,0 C 20,4 C 42 % 0 % 1027 hPa 0,0 l/m 0,6 km/h (0 Bft) 0 min
18.06.2017 11:48 21,2 C 19,8 C 20,5 C 45 % 0 % 1027 hPa 0,0 l/m 8,2 km/h (2 Bft) 0 min
18.06.2017 11:51 21,2 C 20,0 C 20,6 C 44 % 0 % 1027 hPa 0,0 l/m 5,4 km/h (1 Bft) 0 min
18.06.2017 11:54 21,2 C 20,5 C 21,1 C 43 % 0 % 1027 hPa 0,0 l/m 9,6 km/h (2 Bft) 0 min
18.06.2017 11:57 21,2 C 20,8 C 21,0 C 45 % 0 % 1027 hPa 0,0 l/m 9,8 km/h (2 Bft) 0 min
18.06.2017 12:00 21,2 C 20,7 C 21,0 C 42 % 0 % 1027 hPa 0,0 l/m 0,9 km/h (0 Bft) 0 min
18.06.2017 12:03 21,2 C 20,7 C 20,9 C 42 % 0 % 1027 hPa 0,0 l/m 7,0 km/h (2 Bft) 0 min
18.06.2017 12:06 21,2 C 20,5 C 20,7 C 44 % 0 % 1027 hPa 0,0 l/m 6,1 km/h (2 Bft) 0 min
18.06.2017 12:09 21,2 C 20,6 C 20,9 C 44 % 0 % 1027 hPa 0,0 l/m 10,5 km/h (2 Bft) 0 min
18.06.2017 12:12 21,2 C 20,6 C 21,0 C 44 % 0 % 1027 hPa 0,0 l/m 5,9 km/h (2 Bft) 0 min
18.06.2017 12:15 21,2 C 20,8 C 20,9 C 44 % 0 % 1027 hPa 0,0 l/m 5,9 km/h (2 Bft) 0 min
18.06.2017 12:18 21,2 C 21,1 C 21,1 C 45 % 0 % 1027 hPa 0,0 l/m 4,3 km/h (1 Bft) 0 min
18.06.2017 12:21 21,3 C 21,2 C 21,2 C 42 % 0 % 1027 hPa 0,0 l/m 5,5 km/h (1 Bft) 0 min
18.06.2017 12:24 21,3 C 21,4 C 21,1 C 45 % 0 % 1027 hPa 0,0 l/m 5,5 km/h (1 Bft) 0 min
18.06.2017 12:27 21,3 C 21,4 C 21,1 C 40 % 0 % 1027 hPa 0,0 l/m 9,4 km/h (2 Bft) 0 min
18.06.2017 12:30 21,3 C 21,3 C 21,6 C 41 % 0 % 1027 hPa 0,0 l/m 3,5 km/h (1 Bft) 0 min
18.06.2017 12:33 21,3 C 21,6 C 21,6 C 43 % 0 % 1027 hPa 0,0 l/m 4,2 km/h (1 Bft) 0 min
18.06.2017 12:36 21,3 C 21,8 C 21,2 C 43 % 0 % 1027 hPa 0,0 l/m 6,1 km/h (2 Bft) 0 min
18.06.2017 12:39 21,3 C 21,5 C 21,4 C 42 % 0 % 1027 hPa 0,0 l/m 1,5 km/h (1 Bft) 0 min
18.06.2017 12:42 21,3 C 21,4 C 21,6 C 43 % 0 % 1027 hPa 0,0 l/m 4,2 km/h (1 Bft) 0 min
18.06.2017 12:45 21,3 C 21,5 C 21,6 C 41 % 0 % 1027 hPa 0,0 l/m 8,5 km/h (2 Bft) 0 min
18.06.2017 12:48 21,3 C 21,5 C 21,4 C 41 % 0 % 1027 hPa 0,0 l/m 2,3 km/h (1 Bft) 0 min
18.06.2017 12:51 21,3 C 21,8 C 21,6 C 43 % 0 % 1027 hPa 0,0 l/m 8,0 km/h (2 Bft) 0 min
18.06.2017 12:54 21,3 C 21,8 C 21,6 C 44 % 0 % 1027 hPa 0,0 l/m 9,8 km/h (2 Bft) 0 min
18.06.2017 12:57 21,3 C 21,7 C 21,7 C 40 % 0 % 1027 hPa 0,0 l/m 10,8 km/h (2 Bft) 0 min
18.06.2017 13:00 21,3 C 21,8 C 21,6 C 40 % 0 % 1027 hPa 0,0 l/m 7,2 km/h (2 Bft) 0 min
18.06.2017 13:03 21,3 C 21,8 C 21,3 C 40 % 0 % 1027 hPa 0,0 l/m 6,8 km/h (2 Bft) 0 min
18.06.2017 13:06 21,4 C 21,6 C 21,8 C 41 % 0 % 1027 hPa 0,0 l/m 7,8 km/h (2 Bft) 0 min
18.06.2017 13:09 21,4 C 21,8 C 21,6 C 43 % 0 % 1027 hPa 0,0 l/m 8,7 km/h (2 Bft) 0 min
18.06.2017 13:12 21,4 C 22,0 C 21,7 C 44 % 0 % 1027 hPa 0,0 l/m 9,2 km/h (2 Bft) 0 min
18.06.2017 13:15 21,4 C 22,0 C 21,7 C 44 % 0 % 1027 hPa 0,0 l/m 5,6 km/h (1 Bft) 0 min
18.06.2017 13:18 21,5 C 22,2 C 21,7 C 43 % 0 % 1027 hPa 0,0 l/m 1,1 km/h (1 Bft) 0 min
18.06.2017 13:21 21,4 C 22,3 C 21,5 C 43 % 0 % 1027 hPa 0,0 l/m 10,6 km/h (2 Bft) 0 min
18.06.2017 13:24 21,5 C 22,4 C 21,9 C 41 % 0 % 1027 hPa 0,0 l/m 12,3 km/h (3 Bft) 0 min
18.06.2017 13:27 21,5 C 22,4 C 22,0 C 41 % 0 % 1027 hPa 0,0 l/m 11,5 km/h (2 Bft) 0 min
18.06.2017 13:30 21,5 C 22,4 C 22,0 C 42 % 0 % 1027 hPa 0,0 l/m 9,2 km/h (2 Bft) 0 min
18.06.2017 13:33 21,8 C 22,4 C 22,0 C 39 % 0 % 1027 hPa 0,0 l/m 10,3 km/h (2 Bft) 0 min
18.06.2017 13:36 21,8 C 22,4 C 21,8 C 40 % 0 % 1027 hPa 0,0 l/m 6,3 km/h (2 Bft) 0 min
18.06.2017 13:39 21,8 C 22,5 C 21,9 C 41 % 0 % 1027 hPa 0,0 l/m 0,3 km/h (0 Bft) 0 min
18.06.2017 13:42 21,7 C 22,2 C 22,1 C 40 % 0 % 1027 hPa 0,0 l/m 8,2 km/h (2 Bft) 0 min
18.06.2017 13:45 21,6 C 22,2 C 22,2 C 40 % 0 % 1027 hPa 0,0 l/m 8,7 km/h (2 Bft) 0 min
18.06.2017 13:48 21,6 C 22,2 C 22,3 C 40 % 0 % 1027 hPa 0,0 l/m 10,3 km/h (2 Bft) 0 min
18.06.2017 13:51 21,6 C 22,0 C 21,9 C 41 % 0 % 1027 hPa 0,0 l/m 6,1 km/h (2 Bft) 0 min
18.06.2017 13:54 21,6 C 22,1 C 22,1 C 40 % 0 % 1027 hPa 0,0 l/m 1,8 km/h (1 Bft) 0 min
18.06.2017 13:57 21,6 C 21,9 C 22,0 C 41 % 0 % 1027 hPa 0,0 l/m 7,8 km/h (2 Bft) 0 min
18.06.2017 14:00 21,5 C 21,8 C 21,9 C 41 % 0 % 1027 hPa 0,0 l/m 8,7 km/h (2 Bft) 0 min
18.06.2017 14:03 21,6 C 21,7 C 22,0 C 40 % 0 % 1027 hPa 0,0 l/m 4,5 km/h (1 Bft) 0 min
18.06.2017 14:06 21,5 C 21,8 C 22,0 C 41 % 0 % 1027 hPa 0,0 l/m 4,3 km/h (1 Bft) 0 min
18.06.2017 14:09 21,5 C 21,8 C 22,1 C 41 % 0 % 1027 hPa 0,0 l/m 0,3 km/h (0 Bft) 0 min
18.06.2017 14:12 21,5 C 22,0 C 22,2 C 42 % 0 % 1027 hPa 0,0 l/m 3,8 km/h (1 Bft) 0 min
18.06.2017 14:15 21,5 C 22,3 C 22,4 C 44 % 0 % 1027 hPa 0,0 l/m 3,8 km/h (1 Bft) 0 min
18.06.2017 14:18 21,5 C 22,3 C 22,3 C 42 % 0 % 1027 hPa 0,0 l/m 12,0 km/h (2 Bft) 0 min
18.06.2017 14:21 21,5 C 22,5 C 23,0 C 43 % 0 % 1027 hPa 0,0 l/m 3,6 km/h (1 Bft) 0 min
18.06.2017 14:24 21,6 C 22,5 C 22,3 C 43 % 0 % 1027 hPa 0,0 l/m 4,2 km/h (1 Bft) 0 min
18.06.2017 14:27 21,6 C 22,8 C 22,2 C 43 % 0 % 1027 hPa 0,0 l/m 6,6 km/h (2 Bft) 0 min
18.06.2017 14:30 21,6 C 22,9 C 22,0 C 41 % 0 % 1027 hPa 0,0 l/m 3,9 km/h (1 Bft) 0 min
18.06.2017 14:33 21,6 C 23,0 C 22,4 C 42 % 0 % 1027 hPa 0,0 l/m 6,1 km/h (2 Bft) 0 min
18.06.2017 14:36 21,6 C 22,9 C 22,2 C 41 % 0 % 1027 hPa 0,0 l/m 5,7 km/h (1 Bft) 0 min
18.06.2017 14:39 21,6 C 22,9 C 22,4 C 41 % 0 % 1026 hPa 0,0 l/m 0,4 km/h (0 Bft) 0 min
18.06.2017 14:42 21,5 C 22,5 C 22,4 C 43 % 0 % 1026 hPa 0,0 l/m 7,1 km/h (2 Bft) 0 min
18.06.2017 14:45 21,5 C 22,5 C 22,6 C 43 % 0 % 1027 hPa 0,0 l/m 10,0 km/h (2 Bft) 0 min
18.06.2017 14:48 21,5 C 22,7 C 22,4 C 40 % 0 % 1027 hPa 0,0 l/m 10,5 km/h (2 Bft) 0 min
18.06.2017 14:51 21,6 C 22,7 C 22,7 C 38 % 0 % 1027 hPa 0,0 l/m 10,7 km/h (2 Bft) 0 min
18.06.2017 14:54 21,6 C 22,4 C 22,3 C 38 % 0 % 1026 hPa 0,0 l/m 10,1 km/h (2 Bft) 0 min
18.06.2017 14:57 21,6 C 22,6 C 22,5 C 41 % 0 % 1026 hPa 0,0 l/m 9,3 km/h (2 Bft) 0 min
18.06.2017 15:00 21,6 C 22,7 C 22,6 C 42 % 0 % 1026 hPa 0,0 l/m 11,3 km/h (2 Bft) 0 min
18.06.2017 15:03 21,6 C 22,8 C 22,8 C 40 % 0 % 1026 hPa 0,0 l/m 8,2 km/h (2 Bft) 0 min
18.06.2017 15:06 21,7 C 22,9 C 22,6 C 40 % 0 % 1026 hPa 0,0 l/m 11,5 km/h (2 Bft) 0 min
18.06.2017 15:09 21,6 C 23,0 C 22,6 C 38 % 0 % 1026 hPa 0,0 l/m 11,8 km/h (2 Bft) 0 min
18.06.2017 15:12 21,7 C 23,1 C 23,1 C 38 % 0 % 1026 hPa 0,0 l/m 13,3 km/h (3 Bft) 0 min
18.06.2017 15:15 21,7 C 23,1 C 22,9 C 40 % 0 % 1026 hPa 0,0 l/m 14,0 km/h (3 Bft) 0 min
18.06.2017 15:18 21,7 C 23,2 C 23,0 C 38 % 0 % 1026 hPa 0,0 l/m 11,6 km/h (2 Bft) 0 min
18.06.2017 15:21 21,7 C 23,2 C 23,0 C 40 % 0 % 1026 hPa 0,0 l/m 13,0 km/h (3 Bft) 0 min
18.06.2017 15:24 21,7 C 23,2 C 22,8 C 39 % 0 % 1026 hPa 0,0 l/m 14,1 km/h (3 Bft) 0 min
18.06.2017 15:27 21,7 C 23,1 C 22,8 C 40 % 0 % 1026 hPa 0,0 l/m 15,8 km/h (3 Bft) 0 min
18.06.2017 15:30 21,8 C 22,9 C 22,4 C 40 % 0 % 1026 hPa 0,0 l/m 7,0 km/h (2 Bft) 0 min
18.06.2017 15:33 21,8 C 22,8 C 22,5 C 41 % 0 % 1026 hPa 0,0 l/m 0,9 km/h (0 Bft) 0 min
18.06.2017 15:36 21,7 C 22,7 C 22,6 C 39 % 0 % 1026 hPa 0,0 l/m 7,6 km/h (2 Bft) 0 min
18.06.2017 15:39 21,7 C 22,8 C 22,7 C 41 % 0 % 1026 hPa 0,0 l/m 4,9 km/h (1 Bft) 0 min
18.06.2017 15:42 21,8 C 22,8 C 22,6 C 40 % 0 % 1026 hPa 0,0 l/m 0,8 km/h (0 Bft) 0 min
18.06.2017 15:45 21,8 C 22,9 C 22,6 C 40 % 0 % 1026 hPa 0,0 l/m 6,5 km/h (2 Bft) 0 min
18.06.2017 15:48 21,7 C 23,0 C 22,4 C 42 % 0 % 1026 hPa 0,0 l/m 6,5 km/h (2 Bft) 0 min
18.06.2017 15:51 21,7 C 23,1 C 22,6 C 39 % 0 % 1026 hPa 0,0 l/m 4,6 km/h (1 Bft) 0 min
18.06.2017 15:54 21,8 C 23,2 C 22,8 C 41 % 0 % 1026 hPa 0,0 l/m 4,6 km/h (1 Bft) 0 min
18.06.2017 15:57 21,8 C 22,9 C 22,5 C 39 % 0 % 1026 hPa 0,0 l/m 5,5 km/h (1 Bft) 0 min
18.06.2017 16:00 21,8 C 22,4 C 22,6 C 40 % 0 % 1026 hPa 0,0 l/m 0,4 km/h (0 Bft) 0 min
18.06.2017 16:03 21,8 C 22,5 C 22,6 C 43 % 0 % 1026 hPa 0,0 l/m 0,9 km/h (0 Bft) 0 min
18.06.2017 16:06 21,8 C 22,6 C 22,3 C 40 % 0 % 1026 hPa 0,0 l/m 3,1 km/h (1 Bft) 0 min
18.06.2017 16:09 21,8 C 22,5 C 22,5 C 41 % 0 % 1026 hPa 0,0 l/m 5,4 km/h (1 Bft) 0 min
18.06.2017 16:12 21,8 C 22,4 C 22,6 C 43 % 0 % 1026 hPa 0,0 l/m 5,1 km/h (1 Bft) 0 min
18.06.2017 16:15 21,8 C 22,5 C 22,5 C 42 % 0 % 1026 hPa 0,0 l/m 3,9 km/h (1 Bft) 0 min
18.06.2017 16:18 21,7 C 22,7 C 22,6 C 43 % 0 % 1026 hPa 0,0 l/m 3,9 km/h (1 Bft) 0 min
18.06.2017 16:21 21,7 C 22,7 C 22,6 C 43 % 0 % 1026 hPa 0,0 l/m 0,3 km/h (0 Bft) 0 min
18.06.2017 16:24 21,7 C 23,0 C 22,8 C 39 % 0 % 1026 hPa 0,0 l/m 8,7 km/h (2 Bft) 0 min
18.06.2017 16:27 21,7 C 23,0 C 22,8 C 39 % 0 % 1026 hPa 0,0 l/m 7,7 km/h (2 Bft) 0 min
18.06.2017 16:30 21,7 C 23,0 C 23,0 C 39 % 0 % 1026 hPa 0,0 l/m 7,2 km/h (2 Bft) 0 min
18.06.2017 16:33 21,8 C 23,2 C 22,9 C 40 % 0 % 1026 hPa 0,0 l/m 4,4 km/h (1 Bft) 0 min
18.06.2017 16:36 21,8 C 23,2 C 22,7 C 40 % 0 % 1026 hPa 0,0 l/m 0,6 km/h (0 Bft) 0 min
18.06.2017 16:39 21,8 C 23,2 C 23,2 C 40 % 0 % 1026 hPa 0,0 l/m 11,3 km/h (2 Bft) 0 min
18.06.2017 16:42 21,7 C 23,2 C 23,1 C 39 % 0 % 1026 hPa 0,0 l/m 7,6 km/h (2 Bft) 0 min
18.06.2017 16:45 21,7 C 23,2 C 23,2 C 42 % 0 % 1026 hPa 0,0 l/m 0,5 km/h (0 Bft) 0 min
18.06.2017 16:48 21,7 C 23,2 C 22,9 C 41 % 0 % 1026 hPa 0,0 l/m 5,4 km/h (1 Bft) 0 min
18.06.2017 16:51 21,7 C 23,3 C 22,9 C 42 % 0 % 1026 hPa 0,0 l/m 4,6 km/h (1 Bft) 0 min
18.06.2017 16:54 21,7 C 23,3 C 23,0 C 40 % 0 % 1026 hPa 0,0 l/m 5,6 km/h (1 Bft) 0 min
18.06.2017 16:57 21,7 C 23,3 C 23,2 C 40 % 0 % 1026 hPa 0,0 l/m 11,3 km/h (2 Bft) 0 min
18.06.2017 17:00 21,7 C 23,3 C 23,2 C 43 % 0 % 1026 hPa 0,0 l/m 9,2 km/h (2 Bft) 0 min
18.06.2017 17:03 21,6 C 23,3 C 23,2 C 38 % 0 % 1026 hPa 0,0 l/m 10,5 km/h (2 Bft) 0 min
18.06.2017 17:06 21,6 C 23,2 C 23,4 C 39 % 0 % 1026 hPa 0,0 l/m 6,9 km/h (2 Bft) 0 min
18.06.2017 17:09 21,6 C 23,3 C 23,2 C 40 % 0 % 1026 hPa 0,0 l/m 4,4 km/h (1 Bft) 0 min
18.06.2017 17:12 21,7 C 23,4 C 23,0 C 40 % 0 % 1026 hPa 0,0 l/m 6,5 km/h (2 Bft) 0 min
18.06.2017 17:15 21,7 C 23,4 C 23,0 C 39 % 0 % 1026 hPa 0,0 l/m 6,6 km/h (2 Bft) 0 min
18.06.2017 17:18 21,7 C 23,3 C 23,0 C 39 % 0 % 1025 hPa 0,0 l/m 4,6 km/h (1 Bft) 0 min
18.06.2017 17:21 21,7 C 23,2 C 23,0 C 39 % 0 % 1025 hPa 0,0 l/m 5,1 km/h (1 Bft) 0 min
18.06.2017 17:24 21,7 C 23,2 C 22,9 C 40 % 0 % 1025 hPa 0,0 l/m 5,1 km/h (1 Bft) 0 min
18.06.2017 17:27 21,7 C 23,2 C 23,2 C 38 % 0 % 1025 hPa 0,0 l/m 4,3 km/h (1 Bft) 0 min
18.06.2017 17:30 21,6 C 23,2 C 23,1 C 38 % 0 % 1025 hPa 0,0 l/m 3,7 km/h (1 Bft) 0 min
18.06.2017 17:33 21,7 C 23,1 C 23,0 C 40 % 0 % 1025 hPa 0,0 l/m 1,0 km/h (0 Bft) 0 min
18.06.2017 17:36 21,7 C 23,1 C 23,1 C 40 % 0 % 1025 hPa 0,0 l/m 4,5 km/h (1 Bft) 0 min
18.06.2017 17:39 21,7 C 23,2 C 23,0 C 39 % 0 % 1025 hPa 0,0 l/m 4,6 km/h (1 Bft) 0 min
18.06.2017 17:42 21,8 C 23,2 C 23,4 C 40 % 0 % 1025 hPa 0,0 l/m 6,5 km/h (2 Bft) 0 min
18.06.2017 17:45 21,7 C 23,4 C 23,0 C 42 % 0 % 1025 hPa 0,0 l/m 4,8 km/h (1 Bft) 0 min
18.06.2017 17:48 21,7 C 23,4 C 23,2 C 39 % 0 % 1025 hPa 0,0 l/m 10,2 km/h (2 Bft) 0 min
18.06.2017 17:51 21,8 C 23,3 C 23,0 C 39 % 0 % 1025 hPa 0,0 l/m 3,2 km/h (1 Bft) 0 min
18.06.2017 17:54 21,7 C 23,2 C 23,0 C 40 % 0 % 1025 hPa 0,0 l/m 3,3 km/h (1 Bft) 0 min
18.06.2017 17:57 21,7 C 23,2 C 22,9 C 40 % 0 % 1025 hPa 0,0 l/m 2,4 km/h (1 Bft) 0 min
18.06.2017 18:00 21,7 C 23,2 C 23,1 C 40 % 0 % 1025 hPa 0,0 l/m 13,6 km/h (3 Bft) 0 min
18.06.2017 18:03 21,7 C 23,1 C 23,1 C 40 % 0 % 1025 hPa 0,0 l/m 0,9 km/h (0 Bft) 0 min
18.06.2017 18:06 21,7 C 23,2 C 22,9 C 43 % 0 % 1025 hPa 0,0 l/m 0,6 km/h (0 Bft) 0 min
18.06.2017 18:09 21,7 C 23,2 C 23,0 C 41 % 0 % 1025 hPa 0,0 l/m 0,6 km/h (0 Bft) 0 min
18.06.2017 18:12 21,7 C 23,2 C 23,1 C 41 % 0 % 1025 hPa 0,0 l/m 3,7 km/h (1 Bft) 0 min
18.06.2017 18:15 21,7 C 23,1 C 23,0 C 40 % 0 % 1025 hPa 0,0 l/m 3,4 km/h (1 Bft) 0 min
18.06.2017 18:18 21,7 C 23,2 C 23,0 C 40 % 0 % 1025 hPa 0,0 l/m 4,3 km/h (1 Bft) 0 min
18.06.2017 18:21 21,7 C 23,2 C 23,0 C 40 % 0 % 1025 hPa 0,0 l/m 6,9 km/h (2 Bft) 0 min
18.06.2017 18:24 21,8 C 23,3 C 22,9 C 39 % 0 % 1025 hPa 0,0 l/m 6,9 km/h (2 Bft) 0 min
18.06.2017 18:27 21,8 C 23,2 C 23,1 C 40 % 0 % 1025 hPa 0,0 l/m 9,4 km/h (2 Bft) 0 min
18.06.2017 18:30 21,8 C 23,1 C 23,1 C 39 % 0 % 1025 hPa 0,0 l/m 7,6 km/h (2 Bft) 0 min
18.06.2017 18:33 21,8 C 23,0 C 23,2 C 39 % 0 % 1025 hPa 0,0 l/m 5,2 km/h (1 Bft) 0 min
18.06.2017 18:36 21,8 C 23,0 C 23,0 C 40 % 0 % 1025 hPa 0,0 l/m 4,3 km/h (1 Bft) 0 min
18.06.2017 18:39 21,8 C 23,0 C 23,1 C 40 % 0 % 1025 hPa 0,0 l/m 4,5 km/h (1 Bft) 0 min
18.06.2017 18:42 21,8 C 23,0 C 23,1 C 40 % 0 % 1025 hPa 0,0 l/m 8,5 km/h (2 Bft) 0 min
18.06.2017 18:45 21,8 C 23,0 C 23,0 C 40 % 0 % 1025 hPa 0,0 l/m 8,0 km/h (2 Bft) 0 min
18.06.2017 18:48 21,8 C 23,0 C 22,8 C 40 % 0 % 1025 hPa 0,0 l/m 5,2 km/h (1 Bft) 0 min
18.06.2017 18:51 21,8 C 22,9 C 22,8 C 41 % 0 % 1025 hPa 0,0 l/m 3,1 km/h (1 Bft) 0 min
18.06.2017 18:54 21,7 C 22,8 C 22,8 C 40 % 0 % 1025 hPa 0,0 l/m 4,2 km/h (1 Bft) 0 min
18.06.2017 18:57 21,7 C 22,8 C 22,9 C 40 % 0 % 1025 hPa 0,0 l/m 1,7 km/h (1 Bft) 0 min
18.06.2017 19:00 21,7 C 22,8 C 22,9 C 40 % 0 % 1025 hPa 0,0 l/m 1,5 km/h (1 Bft) 0 min
18.06.2017 19:03 21,7 C 22,8 C 23,0 C 41 % 0 % 1025 hPa 0,0 l/m 5,4 km/h (1 Bft) 0 min
18.06.2017 19:06 21,7 C 22,8 C 22,8 C 41 % 0 % 1025 hPa 0,0 l/m 7,1 km/h (2 Bft) 0 min
18.06.2017 19:09 21,7 C 22,8 C 22,7 C 40 % 0 % 1025 hPa 0,0 l/m 3,6 km/h (1 Bft) 0 min
18.06.2017 19:12 21,7 C 22,7 C 22,6 C 41 % 0 % 1025 hPa 0,0 l/m 0,3 km/h (0 Bft) 0 min
18.06.2017 19:15 21,7 C 22,7 C 22,6 C 41 % 0 % 1025 hPa 0,0 l/m 0,8 km/h (0 Bft) 0 min
18.06.2017 19:18 21,7 C 22,7 C 22,8 C 40 % 0 % 1025 hPa 0,0 l/m 1,3 km/h (1 Bft) 0 min
18.06.2017 19:21 21,8 C 22,6 C 22,8 C 41 % 0 % 1025 hPa 0,0 l/m 7,3 km/h (2 Bft) 0 min
18.06.2017 19:24 21,8 C 22,7 C 22,7 C 43 % 0 % 1025 hPa 0,0 l/m 3,6 km/h (1 Bft) 0 min
18.06.2017 19:27 21,8 C 22,6 C 22,6 C 42 % 0 % 1025 hPa 0,0 l/m 6,2 km/h (2 Bft) 0 min
18.06.2017 19:30 21,8 C 22,6 C 22,7 C 42 % 0 % 1025 hPa 0,0 l/m 0,6 km/h (0 Bft) 0 min
18.06.2017 19:33 21,8 C 22,6 C 22,7 C 42 % 0 % 1025 hPa 0,0 l/m 4,9 km/h (1 Bft) 0 min
18.06.2017 19:36 21,8 C 22,6 C 22,7 C 43 % 0 % 1025 hPa 0,0 l/m 9,9 km/h (2 Bft) 0 min
18.06.2017 19:39 21,8 C 22,5 C 22,7 C 42 % 0 % 1025 hPa 0,0 l/m 3,7 km/h (1 Bft) 0 min
18.06.2017 19:42 21,8 C 22,5 C 22,6 C 42 % 0 % 1025 hPa 0,0 l/m 2,7 km/h (1 Bft) 0 min
18.06.2017 19:45 21,8 C 22,4 C 22,5 C 43 % 0 % 1025 hPa 0,0 l/m 3,4 km/h (1 Bft) 0 min
18.06.2017 19:48 21,8 C 22,4 C 22,5 C 43 % 0 % 1025 hPa 0,0 l/m 3,4 km/h (1 Bft) 0 min
18.06.2017 19:51 21,8 C 22,4 C 22,5 C 42 % 0 % 1025 hPa 0,0 l/m 2,5 km/h (1 Bft) 0 min
18.06.2017 19:54 21,8 C 22,3 C 22,5 C 43 % 0 % 1025 hPa 0,0 l/m 2,4 km/h (1 Bft) 0 min
18.06.2017 19:57 21,8 C 22,3 C 22,4 C 44 % 0 % 1025 hPa 0,0 l/m 3,1 km/h (1 Bft) 0 min
18.06.2017 20:00 21,8 C 22,2 C 22,4 C 43 % 0 % 1025 hPa 0,0 l/m 2,3 km/h (1 Bft) 0 min
18.06.2017 20:03 21,8 C 22,2 C 22,5 C 42 % 0 % 1025 hPa 0,0 l/m 2,8 km/h (1 Bft) 0 min
18.06.2017 20:06 21,8 C 22,1 C 22,3 C 44 % 0 % 1025 hPa 0,0 l/m 3,7 km/h (1 Bft) 0 min
18.06.2017 20:09 21,8 C 22,1 C 22,2 C 44 % 0 % 1025 hPa 0,0 l/m 0,0 km/h (0 Bft) 0 min
18.06.2017 20:12 21,8 C 22,0 C 22,2 C 44 % 0 % 1025 hPa 0,0 l/m 0,0 km/h (0 Bft) 0 min
18.06.2017 20:15 21,8 C 22,0 C 22,1 C 47 % 0 % 1025 hPa 0,0 l/m 0,3 km/h (0 Bft) 0 min
18.06.2017 20:18 21,8 C 21,9 C 22,1 C 48 % 0 % 1025 hPa 0,0 l/m 0,0 km/h (0 Bft) 0 min
18.06.2017 20:21 21,9 C 21,8 C 22,1 C 48 % 0 % 1025 hPa 0,0 l/m 0,0 km/h (0 Bft) 0 min
18.06.2017 20:24 21,8 C 21,7 C 22,1 C 46 % 0 % 1025 hPa 0,0 l/m 0,0 km/h (0 Bft) 0 min
18.06.2017 20:27 21,9 C 21,5 C 22,1 C 47 % 0 % 1025 hPa 0,0 l/m 1,6 km/h (1 Bft) 0 min
18.06.2017 20:30 21,8 C 21,4 C 22,0 C 48 % 0 % 1025 hPa 0,0 l/m 1,6 km/h (1 Bft) 0 min
18.06.2017 20:33 21,8 C 21,3 C 22,0 C 50 % 0 % 1025 hPa 0,0 l/m 0,7 km/h (0 Bft) 0 min
18.06.2017 20:36 21,8 C 21,2 C 21,8 C 51 % 0 % 1025 hPa 0,0 l/m 0,0 km/h (0 Bft) 0 min
18.06.2017 20:39 21,8 C 21,2 C 21,8 C 51 % 0 % 1025 hPa 0,0 l/m 0,0 km/h (0 Bft) 0 min
18.06.2017 20:42 21,8 C 21,0 C 21,7 C 50 % 0 % 1025 hPa 0,0 l/m 0,0 km/h (0 Bft) 0 min
18.06.2017 20:45 21,8 C 21,0 C 21,7 C 50 % 0 % 1025 hPa 0,0 l/m 0,0 km/h (0 Bft) 0 min
18.06.2017 20:48 21,8 C 20,9 C 21,5 C 51 % 0 % 1025 hPa 0,0 l/m 0,0 km/h (0 Bft) 0 min
18.06.2017 20:51 21,8 C 20,8 C 21,5 C 52 % 0 % 1025 hPa 0,0 l/m 0,0 km/h (0 Bft) 0 min
18.06.2017 20:54 21,8 C 20,8 C 21,5 C 52 % 0 % 1025 hPa 0,0 l/m 0,0 km/h (0 Bft) 0 min
18.06.2017 20:57 21,8 C 20,6 C 21,3 C 52 % 0 % 1025 hPa 0,0 l/m 0,0 km/h (0 Bft) 0 min
18.06.2017 21:00 21,8 C 20,4 C 21,3 C 53 % 0 % 1025 hPa 0,0 l/m 0,0 km/h (0 Bft) 0 min
18.06.2017 21:03 21,8 C 20,2 C 21,4 C 53 % 0 % 1025 hPa 0,0 l/m 0,0 km/h (0 Bft) 0 min
18.06.2017 21:06 21,8 C 20,2 C 21,4 C 56 % 0 % 1025 hPa 0,0 l/m 0,0 km/h (0 Bft) 0 min
18.06.2017 21:09 21,8 C 20,1 C 21,2 C 57 % 0 % 1025 hPa 0,0 l/m 0,0 km/h (0 Bft) 0 min
18.06.2017 21:12 21,8 C 20,0 C 21,1 C 55 % 0 % 1025 hPa 0,0 l/m 0,0 km/h (0 Bft) 0 min
18.06.2017 21:15 21,9 C 19,9 C 21,1 C 55 % 0 % 1025 hPa 0,0 l/m 0,0 km/h (0 Bft) 0 min
18.06.2017 21:18 21,9 C 19,8 C 21,0 C 55 % 0 % 1025 hPa 0,0 l/m 0,0 km/h (0 Bft) 0 min
18.06.2017 21:21 21,8 C 19,7 C 21,0 C 55 % 0 % 1025 hPa 0,0 l/m 0,0 km/h (0 Bft) 0 min
18.06.2017 21:24 21,9 C 19,6 C 20,9 C 57 % 0 % 1025 hPa 0,0 l/m 0,0 km/h (0 Bft) 0 min
18.06.2017 21:27 21,8 C 19,4 C 21,0 C 57 % 0 % 1025 hPa 0,0 l/m 0,0 km/h (0 Bft) 0 min
18.06.2017 21:30 21,8 C 19,4 C 20,8 C 59 % 0 % 1025 hPa 0,0 l/m 0,0 km/h (0 Bft) 0 min
18.06.2017 21:33 21,8 C 19,3 C 20,8 C 58 % 0 % 1025 hPa 0,0 l/m 0,0 km/h (0 Bft) 0 min
18.06.2017 21:36 21,9 C 19,2 C 20,7 C 58 % 0 % 1025 hPa 0,0 l/m 0,0 km/h (0 Bft) 0 min
18.06.2017 21:39 21,9 C 19,1 C 20,8 C 58 % 0 % 1025 hPa 0,0 l/m 0,0 km/h (0 Bft) 0 min
18.06.2017 21:42 21,9 C 19,1 C 20,3 C 58 % 0 % 1025 hPa 0,0 l/m 0,0 km/h (0 Bft) 0 min
18.06.2017 21:45 21,9 C 18,8 C 20,6 C 59 % 0 % 1025 hPa 0,0 l/m 0,0 km/h (0 Bft) 0 min
18.06.2017 21:48 21,9 C 18,8 C 20,6 C 60 % 0 % 1025 hPa 0,0 l/m 0,0 km/h (0 Bft) 0 min
18.06.2017 21:51 21,9 C 18,7 C 20,5 C 60 % 0 % 1025 hPa 0,0 l/m 0,0 km/h (0 Bft) 0 min
18.06.2017 21:54 21,9 C 18,7 C 20,4 C 60 % 0 % 1025 hPa 0,0 l/m 0,0 km/h (0 Bft) 0 min
18.06.2017 21:57 21,9 C 18,7 C 20,3 C 60 % 0 % 1025 hPa 0,0 l/m 0,0 km/h (0 Bft) 0 min
18.06.2017 22:00 21,9 C 18,5 C 20,2 C 61 % 0 % 1025 hPa 0,0 l/m 0,0 km/h (0 Bft) 0 min
18.06.2017 22:03 21,9 C 18,4 C 20,4 C 61 % 0 % 1025 hPa 0,0 l/m 0,0 km/h (0 Bft) 0 min
18.06.2017 22:06 21,9 C 18,4 C 20,3 C 61 % 0 % 1025 hPa 0,0 l/m 0,0 km/h (0 Bft) 0 min
18.06.2017 22:09 21,9 C 18,2 C 20,3 C 62 % 0 % 1025 hPa 0,0 l/m 0,0 km/h (0 Bft) 0 min
18.06.2017 22:12 21,9 C 18,1 C 20,1 C 62 % 0 % 1025 hPa 0,0 l/m 0,0 km/h (0 Bft) 0 min
18.06.2017 22:15 21,8 C 18,0 C 19,8 C 63 % 0 % 1025 hPa 0,0 l/m 0,0 km/h (0 Bft) 0 min
18.06.2017 22:18 21,9 C 18,0 C 19,8 C 63 % 0 % 1026 hPa 0,0 l/m 0,0 km/h (0 Bft) 0 min
18.06.2017 22:21 21,9 C 17,9 C 20,2 C 63 % 0 % 1026 hPa 0,0 l/m 0,0 km/h (0 Bft) 0 min
18.06.2017 22:24 21,9 C 17,8 C 20,0 C 64 % 0 % 1026 hPa 0,0 l/m 0,0 km/h (0 Bft) 0 min
18.06.2017 22:27 21,9 C 17,8 C 19,8 C 64 % 0 % 1026 hPa 0,0 l/m 0,0 km/h (0 Bft) 0 min
18.06.2017 22:30 21,8 C 17,7 C 19,8 C 64 % 0 % 1026 hPa 0,0 l/m 0,0 km/h (0 Bft) 0 min
18.06.2017 22:33 21,8 C 17,6 C 19,5 C 64 % 0 % 1026 hPa 0,0 l/m 0,0 km/h (0 Bft) 0 min
18.06.2017 22:36 21,8 C 17,5 C 19,6 C 64 % 0 % 1026 hPa 0,0 l/m 0,0 km/h (0 Bft) 0 min
18.06.2017 22:39 21,9 C 17,4 C 19,5 C 65 % 0 % 1026 hPa 0,0 l/m 0,0 km/h (0 Bft) 0 min
18.06.2017 22:42 21,8 C 17,4 C 19,7 C 65 % 0 % 1026 hPa 0,0 l/m 0,0 km/h (0 Bft) 0 min
18.06.2017 22:45 21,8 C 17,2 C 19,7 C 65 % 0 % 1026 hPa 0,0 l/m 0,0 km/h (0 Bft) 0 min
18.06.2017 22:48 21,8 C 17,2 C 19,7 C 65 % 0 % 1026 hPa 0,0 l/m 0,0 km/h (0 Bft) 0 min
18.06.2017 22:51 21,8 C 17,1 C 19,5 C 65 % 0 % 1026 hPa 0,0 l/m 0,1 km/h (0 Bft) 0 min
18.06.2017 22:54 21,8 C 17,0 C 19,4 C 65 % 0 % 1026 hPa 0,0 l/m 0,1 km/h (0 Bft) 0 min
18.06.2017 22:57 21,7 C 17,0 C 19,3 C 66 % 0 % 1026 hPa 0,0 l/m 0,0 km/h (0 Bft) 0 min
18.06.2017 23:00 21,6 C 16,9 C 19,3 C 66 % 0 % 1026 hPa 0,0 l/m 0,0 km/h (0 Bft) 0 min
18.06.2017 23:03 21,5 C 16,8 C 19,1 C 66 % 0 % 1026 hPa 0,0 l/m 0,0 km/h (0 Bft) 0 min
18.06.2017 23:06 21,4 C 16,7 C 19,1 C 66 % 0 % 1026 hPa 0,0 l/m 0,0 km/h (0 Bft) 0 min
18.06.2017 23:09 21,4 C 16,6 C 19,0 C 67 % 0 % 1026 hPa 0,0 l/m 0,0 km/h (0 Bft) 0 min
18.06.2017 23:12 21,3 C 16,6 C 19,1 C 67 % 0 % 1026 hPa 0,0 l/m 0,3 km/h (0 Bft) 0 min
18.06.2017 23:15 21,3 C 16,5 C 19,2 C 67 % 0 % 1026 hPa 0,0 l/m 1,5 km/h (1 Bft) 0 min
18.06.2017 23:18 21,2 C 16,4 C 19,3 C 67 % 0 % 1026 hPa 0,0 l/m 0,0 km/h (0 Bft) 0 min
18.06.2017 23:21 21,2 C 16,4 C 19,0 C 67 % 0 % 1026 hPa 0,0 l/m 0,0 km/h (0 Bft) 0 min
18.06.2017 23:24 21,2 C 16,3 C 18,7 C 67 % 0 % 1026 hPa 0,0 l/m 0,0 km/h (0 Bft) 0 min
18.06.2017 23:27 21,2 C 16,2 C 18,2 C 68 % 0 % 1026 hPa 0,0 l/m 0,0 km/h (0 Bft) 0 min
18.06.2017 23:30 21,1 C 16,0 C 18,1 C 68 % 0 % 1026 hPa 0,0 l/m 0,0 km/h (0 Bft) 0 min
18.06.2017 23:33 21,1 C 15,8 C 18,3 C 69 % 0 % 1026 hPa 0,0 l/m 0,3 km/h (0 Bft) 0 min
18.06.2017 23:36 21,0 C 15,7 C 17,9 C 69 % 0 % 1026 hPa 0,0 l/m 0,1 km/h (0 Bft) 0 min
18.06.2017 23:39 21,0 C 15,6 C 17,7 C 69 % 0 % 1026 hPa 0,0 l/m 0,0 km/h (0 Bft) 0 min
18.06.2017 23:42 21,0 C 15,4 C 18,0 C 69 % 0 % 1026 hPa 0,0 l/m 0,4 km/h (0 Bft) 0 min
18.06.2017 23:45 21,0 C 15,4 C 18,1 C 69 % 0 % 1026 hPa 0,0 l/m 0,0 km/h (0 Bft) 0 min
18.06.2017 23:48 20,9 C 15,2 C 18,1 C 70 % 0 % 1026 hPa 0,0 l/m 0,0 km/h (0 Bft) 0 min
18.06.2017 23:51 20,9 C 15,2 C 17,7 C 71 % 0 % 1026 hPa 0,0 l/m 0,0 km/h (0 Bft) 0 min
18.06.2017 23:54 20,9 C 15,1 C 17,8 C 71 % 0 % 1026 hPa 0,0 l/m 0,0 km/h (0 Bft) 0 min
18.06.2017 23:57 21,0 C 15,0 C 17,8 C 71 % 0 % 1026 hPa 0,0 l/m 0,0 km/h (0 Bft) 0 min
_ Min-Zeit 05:42 05:36 05:39 14:51 - 17:18 - 00:00 -
Minimum _ 19,0 C 10,9 C 13,6 C 38 % - 1025 hPa - 0,0 km/h (0 Bft) -
_ Max-Zeit 20:21 17:12 17:06 06:15 00:00 06:57 00:00 15:27 00:00
Maximum _ 21,9 C 23,4 C 23,4 C 80 % 0 % 1028 hPa 0,0 l/m 15,8 km/h
SO (3 Bft)
0 min
Durchschnitt _ 20,9 C 18,1 C 19,2 C 57 % #0 min. 1027 hPa #0,0 l/m 2,8 km/h (1 Bft) #0 min.